ZK-1A R/B (53304 NORAD) Tracking and Keplerian Element Data

This shows tracking and keplerian element data for the satellite.

Feedback or suggestion? Click here.




ElementValue
Catalog53304
NameZK-1A R/B
Epoch Orbit443
Epoch Day236.85456532
Epoch Year2022
RAAN311.5153
Inclination97.2789
Eccentricity0.0173048
Argument of Perigee207.3354
Mean Anonmoly151.8713
Mean Motion15.48659579
Decay Rate0.00022622
L11 53304U 22087F 22236.85456532 .00022622 21757-5 23526-3 0 9999
L22 53304 97.2789 311.5153 0173048 207.3354 151.8713 15.48659579 4431

Live tracking and technical data element details for ZK-1A R/B (NORAD 53304). ZK-1A R/B can be tracked NOW for your location showing map with azimuth and elevation plus other details from your city location.

Track the satellite on the map from your city or location and see movement details for azimuth, elevation, latitude, longitude, range, height, and movement on the map or in text.







IsCatalogInMostPopularTable: catalog: 53304, numindb: 4
Update: records affected: 1



GetName: 53304 ZK-1A R/B

Hit Count: updated at: Wed, 28 Sep 2022 21:53:51 GMT